WMT5876 EKBI-LRIA

Flight info

Callsign WMT5876
Flight time 2h 17m
Altitude 37000
Route RIDSI DCT TUDLO DCT NIKDA DCT BINKA DCT LENOV DCT KENIN DCT KARIL DCT TOMUC P133 ARPIG
Aircraft A320/M-SDE3FGHIRWY/LB1

Departure

Time 2026-05-07 09:55
Airport Billund Airport (EKBI)

Arrival

Time 2026-05-07 12:12
Airport Iaşi International Airport (LRIA)
Time Latitude Longitude Altitude Speed Heading
2026-05-07 09:27 55.74534 9.14683 216 ft 0 kts 357°
2026-05-07 09:42 55.74520 9.14685 220 ft 4 kts 357°
2026-05-07 09:42 55.74493 9.14687 216 ft 4 kts 356°
2026-05-07 09:42 55.74472 9.14690 216 ft 3 kts
2026-05-07 09:43 55.74449 9.14678 218 ft 3 kts 60°
2026-05-07 09:43 55.74444 9.14637 218 ft 3 kts 87°
2026-05-07 09:43 55.74444 9.14629 218 ft 0 kts 86°
2026-05-07 09:46 55.74444 9.14636 218 ft 3 kts 87°
2026-05-07 09:46 55.74447 9.14710 221 ft 9 kts 87°
2026-05-07 09:47 55.74451 9.14852 216 ft 13 kts 86°
2026-05-07 09:47 55.74407 9.14979 216 ft 15 kts 167°
2026-05-07 09:47 55.74331 9.14987 216 ft 18 kts 177°
2026-05-07 09:47 55.74211 9.15033 216 ft 18 kts 131°
2026-05-07 09:48 55.74204 9.15256 216 ft 19 kts 87°
2026-05-07 09:48 55.74211 9.15507 216 ft 21 kts 87°
2026-05-07 09:48 55.74219 9.15778 220 ft 23 kts 87°
2026-05-07 09:48 55.74228 9.16070 216 ft 24 kts 86°
2026-05-07 09:49 55.74237 9.16355 221 ft 22 kts 87°
2026-05-07 09:49 55.74246 9.16632 216 ft 23 kts 86°
2026-05-07 09:49 55.74254 9.16903 219 ft 22 kts 87°
2026-05-07 09:49 55.74263 9.17183 216 ft 24 kts 86°
2026-05-07 09:50 55.74273 9.17472 216 ft 23 kts 86°
2026-05-07 09:50 55.74280 9.17704 225 ft 11 kts 87°
2026-05-07 09:50 55.74284 9.17856 216 ft 13 kts 88°
2026-05-07 09:50 55.74286 9.18031 216 ft 15 kts 99°
2026-05-07 09:51 55.74229 9.18141 216 ft 0 kts 163°
2026-05-07 09:51 55.74211 9.18148 218 ft 6 kts 172°
2026-05-07 09:51 55.74147 9.18142 223 ft 12 kts 201°
2026-05-07 09:51 55.74122 9.18067 217 ft 1 kts 264°
2026-05-07 09:52 55.74122 9.18065 217 ft 0 kts 264°
2026-05-07 09:54 55.74114 9.17814 216 ft 54 kts 267°
2026-05-07 09:54 55.74080 9.16753 221 ft 114 kts 266°
2026-05-07 09:54 55.74028 9.15063 220 ft 158 kts 267°
2026-05-07 09:54 55.73992 9.13110 771 ft 158 kts 268°
2026-05-07 09:55 55.74201 9.11185 1396 ft 163 kts 302°
2026-05-07 09:55 55.75205 9.10069 1616 ft 191 kts 356°
2026-05-07 09:55 55.76521 9.10785 1913 ft 214 kts 34°
2026-05-07 09:55 55.77743 9.12559 2273 ft 239 kts 42°
2026-05-07 09:56 55.78999 9.14675 2840 ft 257 kts 44°
2026-05-07 09:56 55.80315 9.16959 3743 ft 263 kts 44°
2026-05-07 09:56 55.81626 9.19207 4694 ft 267 kts 43°
2026-05-07 09:56 55.82990 9.21499 5606 ft 271 kts 42°
2026-05-07 09:57 55.84385 9.23796 6558 ft 274 kts 42°
2026-05-07 09:57 55.85643 9.26356 7375 ft 279 kts 60°
2026-05-07 09:57 55.86225 9.29653 8199 ft 282 kts 86°
2026-05-07 09:57 55.85946 9.33115 9043 ft 286 kts 111°
2026-05-07 09:58 55.84922 9.36150 9894 ft 289 kts 124°
2026-05-07 09:58 55.83739 9.39083 10498 ft 299 kts 125°
2026-05-07 09:58 55.82475 9.42205 10713 ft 322 kts 125°
2026-05-07 09:58 55.81126 9.45528 11110 ft 336 kts 125°
2026-05-07 09:59 55.79750 9.48924 11751 ft 341 kts 125°
2026-05-07 09:59 55.78356 9.52370 12418 ft 345 kts 126°
2026-05-07 09:59 55.76948 9.55855 13089 ft 349 kts 126°
2026-05-07 09:59 55.75526 9.59370 13750 ft 352 kts 126°
2026-05-07 10:00 55.74086 9.62926 14349 ft 356 kts 126°
2026-05-07 10:00 55.72633 9.66504 14919 ft 359 kts 126°
2026-05-07 10:00 55.71160 9.70125 15490 ft 363 kts 126°
2026-05-07 10:00 55.69677 9.73769 16032 ft 366 kts 127°
2026-05-07 10:01 55.68174 9.77455 16593 ft 370 kts 127°
2026-05-07 10:01 55.66657 9.81167 17114 ft 374 kts 127°
2026-05-07 10:01 55.65122 9.84916 17670 ft 378 kts 127°
2026-05-07 10:01 55.63568 9.88707 18210 ft 382 kts 127°
2026-05-07 10:02 55.61995 9.92529 18704 ft 385 kts 127°
2026-05-07 10:02 55.60412 9.96375 19196 ft 388 kts 127°
2026-05-07 10:02 55.58806 10.00238 19710 ft 391 kts 128°
2026-05-07 10:02 55.57114 10.04027 20227 ft 393 kts 130°
2026-05-07 10:03 55.55371 10.07702 20711 ft 396 kts 131°
2026-05-07 10:03 55.53562 10.11397 21213 ft 398 kts 132°
2026-05-07 10:03 55.51736 10.15091 21681 ft 401 kts 132°
2026-05-07 10:03 55.49901 10.18816 22161 ft 403 kts 132°
2026-05-07 10:04 55.48065 10.22577 22626 ft 406 kts 131°
2026-05-07 10:04 55.46222 10.26376 23085 ft 409 kts 131°
2026-05-07 10:04 55.44371 10.30207 23540 ft 411 kts 131°
2026-05-07 10:04 55.42514 10.34058 23929 ft 414 kts 131°
2026-05-07 10:05 55.40646 10.37931 24318 ft 416 kts 131°
2026-05-07 10:05 55.38768 10.41820 24701 ft 418 kts 131°
2026-05-07 10:05 55.36875 10.45734 25077 ft 420 kts 131°
2026-05-07 10:05 55.34971 10.49657 25455 ft 422 kts 131°
2026-05-07 10:06 55.33057 10.53586 25844 ft 424 kts 131°
2026-05-07 10:06 55.31125 10.57536 26208 ft 426 kts 131°
2026-05-07 10:06 55.29187 10.61496 26565 ft 429 kts 131°
2026-05-07 10:06 55.27281 10.65540 26915 ft 431 kts 126°
2026-05-07 10:07 55.25563 10.69869 27258 ft 433 kts 125°
2026-05-07 10:07 55.23847 10.74225 27611 ft 436 kts 125°
2026-05-07 10:07 55.22117 10.78599 27963 ft 438 kts 125°
2026-05-07 10:07 55.20372 10.83006 28323 ft 440 kts 125°
2026-05-07 10:08 55.18623 10.87412 28666 ft 442 kts 125°
2026-05-07 10:08 55.16863 10.91846 29014 ft 444 kts 125°
2026-05-07 10:08 55.15091 10.96299 29366 ft 447 kts 126°
2026-05-07 10:08 55.13311 11.00760 29698 ft 449 kts 126°
2026-05-07 10:09 55.11517 11.05238 30041 ft 450 kts 126°
2026-05-07 10:09 55.09717 11.09726 30472 ft 449 kts 126°
2026-05-07 10:09 55.07926 11.14186 30884 ft 448 kts 126°
2026-05-07 10:09 55.06135 11.18637 31292 ft 447 kts 126°
2026-05-07 10:10 55.04350 11.23063 31697 ft 446 kts 127°
2026-05-07 10:10 55.02558 11.27493 32130 ft 445 kts 127°
2026-05-07 10:10 55.00770 11.31912 32524 ft 445 kts 127°
2026-05-07 10:10 54.98988 11.36305 32937 ft 444 kts 127°
2026-05-07 10:11 54.97207 11.40688 33348 ft 443 kts 127°
2026-05-07 10:11 54.95429 11.45067 33764 ft 442 kts 127°
2026-05-07 10:11 54.93653 11.49434 34167 ft 441 kts 127°
2026-05-07 10:11 54.91876 11.53784 34478 ft 441 kts 127°
2026-05-07 10:12 54.90096 11.58130 34771 ft 441 kts 127°
2026-05-07 10:12 54.88321 11.62459 35059 ft 441 kts 127°
2026-05-07 10:12 54.86526 11.66831 35353 ft 441 kts 127°
2026-05-07 10:12 54.84743 11.71172 35615 ft 441 kts 128°
2026-05-07 10:13 54.82961 11.75502 35886 ft 441 kts 128°
2026-05-07 10:13 54.81195 11.79783 36153 ft 441 kts 128°
2026-05-07 10:13 54.79388 11.84159 36424 ft 441 kts 128°
2026-05-07 10:13 54.77623 11.88431 36677 ft 441 kts 128°
2026-05-07 10:14 54.75808 11.92811 36932 ft 441 kts 128°
2026-05-07 10:14 54.74040 11.97066 37074 ft 443 kts 128°
2026-05-07 10:14 54.72230 12.01417 37098 ft 447 kts 128°
2026-05-07 10:15 54.68571 12.10186 37095 ft 450 kts 128°
2026-05-07 10:15 54.64877 12.19009 37093 ft 450 kts 128°
2026-05-07 10:16 54.61219 12.27701 37092 ft 450 kts 128°
2026-05-07 10:16 54.57570 12.36483 37093 ft 450 kts 128°
2026-05-07 10:17 54.53958 12.45320 37096 ft 450 kts 128°
2026-05-07 10:17 54.50340 12.54127 37095 ft 450 kts 128°
2026-05-07 10:18 54.46701 12.62897 37093 ft 450 kts 128°
2026-05-07 10:18 54.43050 12.71640 37092 ft 450 kts 128°
2026-05-07 10:19 54.39401 12.80368 37096 ft 450 kts 128°
2026-05-07 10:19 54.36365 12.87612 37095 ft 450 kts 128°
2026-05-07 10:20 54.32707 12.96318 37094 ft 450 kts 128°
2026-05-07 10:20 54.29039 13.05013 37086 ft 449 kts 129°
2026-05-07 10:21 54.25373 13.13659 37085 ft 449 kts 129°
2026-05-07 10:21 54.21696 13.22303 37084 ft 449 kts 129°
2026-05-07 10:22 54.18023 13.30937 37087 ft 449 kts 129°
2026-05-07 10:22 54.14346 13.39550 37084 ft 448 kts 129°
2026-05-07 10:23 54.10657 13.48131 37083 ft 448 kts 129°
2026-05-07 10:23 54.06958 13.56687 37084 ft 448 kts 129°
2026-05-07 10:24 54.03271 13.65213 37085 ft 447 kts 129°
2026-05-07 10:24 53.99574 13.73761 37078 ft 447 kts 129°
2026-05-07 10:25 53.95877 13.82262 37073 ft 447 kts 129°
2026-05-07 10:25 53.92176 13.90732 37071 ft 446 kts 130°
2026-05-07 10:26 53.88468 13.99188 37067 ft 446 kts 130°
2026-05-07 10:26 53.84762 14.07630 37079 ft 446 kts 130°
2026-05-07 10:27 53.81044 14.16051 37061 ft 446 kts 130°
2026-05-07 10:27 53.77325 14.24429 37075 ft 445 kts 130°
2026-05-07 10:28 53.73267 14.32249 37061 ft 442 kts 137°
2026-05-07 10:28 53.69020 14.39684 37056 ft 442 kts 137°
2026-05-07 10:29 53.64753 14.47152 37042 ft 442 kts 137°
2026-05-07 10:29 53.60486 14.54606 37041 ft 442 kts 137°
2026-05-07 10:30 53.54070 14.65737 37039 ft 441 kts 138°
2026-05-07 10:30 53.49782 14.73143 37032 ft 441 kts 138°
2026-05-07 10:31 53.45500 14.80515 37036 ft 441 kts 138°
2026-05-07 10:31 53.41206 14.87889 37034 ft 441 kts 138°
2026-05-07 10:32 53.36909 14.95247 37038 ft 441 kts 138°
2026-05-07 10:32 53.32617 15.02578 37037 ft 440 kts 139°
2026-05-07 10:33 53.28320 15.09887 37036 ft 440 kts 139°
2026-05-07 10:33 53.24023 15.17179 37037 ft 440 kts 139°
2026-05-07 10:34 53.19729 15.24442 37038 ft 439 kts 139°
2026-05-07 10:34 53.15434 15.31679 37036 ft 439 kts 139°
2026-05-07 10:35 53.11134 15.38901 37035 ft 439 kts 139°
2026-05-07 10:35 53.06832 15.46124 37029 ft 438 kts 139°
2026-05-07 10:36 53.02565 15.53278 37032 ft 438 kts 139°
2026-05-07 10:36 52.98262 15.60443 37030 ft 437 kts 139°
2026-05-07 10:37 52.93958 15.67591 37034 ft 437 kts 139°
2026-05-07 10:37 52.89654 15.74722 37023 ft 437 kts 139°
2026-05-07 10:38 52.85343 15.81848 37033 ft 437 kts 139°
2026-05-07 10:38 52.81027 15.88952 37025 ft 437 kts 140°
2026-05-07 10:39 52.76698 15.96050 37023 ft 438 kts 140°
2026-05-07 10:39 52.72368 16.03127 37020 ft 438 kts 140°
2026-05-07 10:40 52.68034 16.10206 37012 ft 438 kts 140°
2026-05-07 10:40 52.63698 16.17266 37011 ft 438 kts 140°
2026-05-07 10:41 52.59356 16.24307 37007 ft 439 kts 140°
2026-05-07 10:41 52.55005 16.31345 37005 ft 439 kts 140°
2026-05-07 10:42 52.50644 16.38370 37003 ft 439 kts 140°
2026-05-07 10:42 52.46283 16.45386 37000 ft 439 kts 140°
2026-05-07 10:43 52.41944 16.52350 37003 ft 439 kts 140°
2026-05-07 10:43 52.37566 16.59343 37003 ft 439 kts 140°
2026-05-07 10:44 52.33178 16.66331 37007 ft 440 kts 140°
2026-05-07 10:44 52.28793 16.73310 37005 ft 440 kts 141°
2026-05-07 10:45 52.24407 16.80262 37004 ft 440 kts 141°
2026-05-07 10:45 52.20010 16.87210 36998 ft 440 kts 141°
2026-05-07 10:46 52.15617 16.94146 36993 ft 440 kts 141°
2026-05-07 10:46 52.11201 17.01078 36990 ft 440 kts 141°
2026-05-07 10:47 52.06788 17.07985 36989 ft 440 kts 141°
2026-05-07 10:47 52.02372 17.14888 36984 ft 440 kts 141°
2026-05-07 10:48 51.97951 17.21769 36988 ft 440 kts 141°
2026-05-07 10:48 51.93532 17.28636 36983 ft 440 kts 141°
2026-05-07 10:49 51.89110 17.35494 36980 ft 440 kts 142°
2026-05-07 10:49 51.84679 17.42324 36975 ft 440 kts 142°
2026-05-07 10:50 51.80237 17.49151 36973 ft 440 kts 142°
2026-05-07 10:50 51.75796 17.55974 36970 ft 440 kts 142°
2026-05-07 10:51 51.71354 17.62797 36967 ft 440 kts 142°
2026-05-07 10:51 51.67659 17.68447 36966 ft 441 kts 142°
2026-05-07 10:52 51.63196 17.75234 36964 ft 441 kts 142°
2026-05-07 10:52 51.58725 17.82002 36963 ft 441 kts 142°
2026-05-07 10:53 51.54251 17.88776 36963 ft 441 kts 142°
2026-05-07 10:53 51.49804 17.95492 36963 ft 441 kts 142°
2026-05-07 10:54 51.45323 18.02229 36962 ft 441 kts 142°
2026-05-07 10:54 51.40836 18.08961 36960 ft 442 kts 142°
2026-05-07 10:55 51.36345 18.15699 36959 ft 442 kts 142°
2026-05-07 10:55 51.31848 18.22429 36952 ft 442 kts 142°
2026-05-07 10:56 51.27339 18.29125 36939 ft 443 kts 142°
2026-05-07 10:56 51.22821 18.35824 36934 ft 443 kts 142°
2026-05-07 10:57 51.18295 18.42545 36932 ft 443 kts 142°
2026-05-07 10:57 51.13775 18.49237 36938 ft 444 kts 142°
2026-05-07 10:58 51.09238 18.55920 36939 ft 444 kts 142°
2026-05-07 10:58 51.04724 18.62530 36939 ft 444 kts 142°
2026-05-07 10:59 51.00153 18.69216 36938 ft 444 kts 142°
2026-05-07 10:59 50.95603 18.75873 36940 ft 444 kts 142°
2026-05-07 11:00 50.91081 18.82466 36938 ft 444 kts 142°
2026-05-07 11:00 50.86519 18.89078 36930 ft 444 kts 143°
2026-05-07 11:01 50.81951 18.95679 36938 ft 445 kts 143°
2026-05-07 11:01 50.77377 19.02286 36942 ft 445 kts 143°
2026-05-07 11:02 50.72800 19.08879 36944 ft 445 kts 143°
2026-05-07 11:02 50.68214 19.15458 36944 ft 445 kts 143°
2026-05-07 11:03 50.63625 19.22025 36954 ft 445 kts 142°
2026-05-07 11:03 50.59032 19.28585 36947 ft 445 kts 143°
2026-05-07 11:04 50.54440 19.35126 36941 ft 444 kts 143°
2026-05-07 11:04 50.49851 19.41655 36936 ft 444 kts 143°
2026-05-07 11:05 50.45258 19.48168 36933 ft 444 kts 143°
2026-05-07 11:05 50.40662 19.54669 36928 ft 444 kts 143°
2026-05-07 11:06 50.36062 19.61147 36926 ft 444 kts 143°
2026-05-07 11:06 50.31453 19.67612 36928 ft 445 kts 143°
2026-05-07 11:07 50.26839 19.74064 36938 ft 445 kts 143°
2026-05-07 11:07 50.22214 19.80520 36944 ft 445 kts 143°
2026-05-07 11:08 50.17625 19.86911 36948 ft 445 kts 143°
2026-05-07 11:08 50.13001 19.93349 36949 ft 445 kts 143°
2026-05-07 11:09 50.08368 19.99778 36948 ft 445 kts 142°
2026-05-07 11:09 50.03736 20.06183 36946 ft 445 kts 142°
2026-05-07 11:10 49.99104 20.12576 36946 ft 445 kts 142°
2026-05-07 11:10 49.94465 20.18954 36943 ft 445 kts 143°
2026-05-07 11:11 49.89816 20.25304 36944 ft 445 kts 143°
2026-05-07 11:11 49.85164 20.31659 36942 ft 445 kts 143°
2026-05-07 11:12 49.80520 20.38002 36950 ft 445 kts 142°
2026-05-07 11:12 49.75882 20.44335 36946 ft 444 kts 143°
2026-05-07 11:13 49.71231 20.50644 36945 ft 444 kts 143°
2026-05-07 11:13 49.66582 20.56933 36945 ft 444 kts 143°
2026-05-07 11:14 49.61925 20.63219 36939 ft 444 kts 143°
2026-05-07 11:14 49.57266 20.69486 36941 ft 444 kts 143°
2026-05-07 11:15 49.52634 20.75701 36945 ft 444 kts 143°
2026-05-07 11:15 49.47970 20.81951 36940 ft 444 kts 143°
2026-05-07 11:16 49.43303 20.88178 36944 ft 444 kts 143°
2026-05-07 11:16 49.38630 20.94397 36947 ft 444 kts 143°
2026-05-07 11:17 49.33938 21.00555 36945 ft 442 kts 147°
2026-05-07 11:17 49.28811 21.05674 36944 ft 439 kts 152°
2026-05-07 11:18 49.23627 21.10634 36950 ft 439 kts 152°
2026-05-07 11:18 49.18441 21.15597 36953 ft 439 kts 152°
2026-05-07 11:19 49.13251 21.20555 36956 ft 439 kts 152°
2026-05-07 11:19 49.08060 21.25487 36957 ft 439 kts 152°
2026-05-07 11:20 49.02867 21.30418 36952 ft 440 kts 152°
2026-05-07 11:20 48.97670 21.35347 36951 ft 440 kts 152°
2026-05-07 11:21 48.92471 21.40270 36958 ft 440 kts 152°
2026-05-07 11:21 48.87268 21.45176 36962 ft 440 kts 152°
2026-05-07 11:22 48.82057 21.50075 36962 ft 440 kts 152°
2026-05-07 11:22 48.76849 21.54966 36961 ft 440 kts 152°
2026-05-07 11:23 48.71639 21.59837 36961 ft 440 kts 152°
2026-05-07 11:23 48.66420 21.64703 36964 ft 440 kts 152°
2026-05-07 11:24 48.62081 21.68743 36964 ft 441 kts 152°
2026-05-07 11:24 48.56857 21.73602 36968 ft 441 kts 152°
2026-05-07 11:25 48.51621 21.78454 36972 ft 441 kts 152°
2026-05-07 11:25 48.46384 21.83305 36979 ft 441 kts 152°
2026-05-07 11:26 48.41142 21.88138 36977 ft 442 kts 152°
2026-05-07 11:26 48.35892 21.92971 36986 ft 442 kts 152°
2026-05-07 11:27 48.30667 21.97764 36948 ft 442 kts 153°
2026-05-07 11:27 48.25401 22.02589 37026 ft 440 kts 153°
2026-05-07 11:28 48.20213 22.07332 37023 ft 437 kts 153°
2026-05-07 11:28 48.15025 22.12055 37023 ft 435 kts 153°
2026-05-07 11:29 48.09845 22.16755 37015 ft 435 kts 153°
2026-05-07 11:29 48.04670 22.21441 37020 ft 435 kts 153°
2026-05-07 11:30 47.99486 22.26130 37010 ft 435 kts 153°
2026-05-07 11:30 47.94302 22.30818 37007 ft 435 kts 153°
2026-05-07 11:31 47.89113 22.35488 37007 ft 435 kts 153°
2026-05-07 11:31 47.84040 22.40465 37012 ft 441 kts 142°
2026-05-07 11:32 47.80317 22.47750 37004 ft 453 kts 118°
2026-05-07 11:32 47.79258 22.52170 37006 ft 458 kts 105°
2026-05-07 11:33 47.78591 22.61640 37000 ft 462 kts 96°
2026-05-07 11:33 47.78135 22.71200 37005 ft 463 kts 96°
2026-05-07 11:34 47.77661 22.80753 37011 ft 464 kts 96°
2026-05-07 11:34 47.77184 22.90338 37013 ft 464 kts 96°
2026-05-07 11:35 47.76701 22.99913 37019 ft 465 kts 96°
2026-05-07 11:35 47.76209 23.09504 37018 ft 465 kts 96°
2026-05-07 11:36 47.75710 23.19088 37018 ft 465 kts 97°
2026-05-07 11:36 47.75202 23.28684 37049 ft 465 kts 97°
2026-05-07 11:37 47.74689 23.38281 37056 ft 466 kts 96°
2026-05-07 11:37 47.74170 23.47875 37061 ft 465 kts 97°
2026-05-07 11:38 47.73632 23.57474 37057 ft 465 kts 96°
2026-05-07 11:38 47.73085 23.67065 37055 ft 466 kts 97°
2026-05-07 11:39 47.72541 23.76595 37043 ft 465 kts 96°
2026-05-07 11:39 47.71988 23.86234 37034 ft 465 kts 96°
2026-05-07 11:40 47.71424 23.95798 37027 ft 465 kts 96°
2026-05-07 11:40 47.70853 24.05308 37019 ft 464 kts 96°
2026-05-07 11:41 47.70275 24.14861 37024 ft 464 kts 97°
2026-05-07 11:41 47.69690 24.24405 37027 ft 464 kts 97°
2026-05-07 11:42 47.69098 24.33950 37025 ft 464 kts 97°
2026-05-07 11:42 47.68491 24.43500 37026 ft 464 kts 97°
2026-05-07 11:43 47.67873 24.53027 37027 ft 464 kts 97°
2026-05-07 11:43 47.67251 24.62568 37042 ft 463 kts 97°
2026-05-07 11:44 47.66633 24.72091 37045 ft 463 kts 97°
2026-05-07 11:44 47.66002 24.81588 37045 ft 462 kts 97°
2026-05-07 11:45 47.65356 24.91079 37041 ft 462 kts 97°
2026-05-07 11:45 47.64706 25.00565 37037 ft 462 kts 97°
2026-05-07 11:46 47.64064 25.10054 37037 ft 462 kts 96°
2026-05-07 11:46 47.63402 25.19545 37033 ft 462 kts 97°
2026-05-07 11:47 47.62723 25.29040 37027 ft 462 kts 97°
2026-05-07 11:47 47.62048 25.38517 37023 ft 463 kts 97°
2026-05-07 11:48 47.61363 25.47960 37022 ft 463 kts 97°
2026-05-07 11:48 47.60662 25.57443 37017 ft 463 kts 97°
2026-05-07 11:49 47.59958 25.66923 37012 ft 463 kts 97°
2026-05-07 11:49 47.59253 25.76413 37012 ft 463 kts 97°
2026-05-07 11:50 47.58539 25.85906 37008 ft 463 kts 97°
2026-05-07 11:50 47.57807 25.95400 36556 ft 466 kts 97°
2026-05-07 11:50 47.57431 26.00243 35399 ft 480 kts 97°
2026-05-07 11:51 47.57046 26.05177 34667 ft 482 kts 97°
2026-05-07 11:51 47.56659 26.10131 34026 ft 483 kts 97°
2026-05-07 11:51 47.56270 26.15058 33443 ft 481 kts 97°
2026-05-07 11:51 47.55882 26.19950 32909 ft 477 kts 97°
2026-05-07 11:52 47.55495 26.24812 32399 ft 472 kts 97°
2026-05-07 11:52 47.55113 26.29620 31910 ft 468 kts 96°
2026-05-07 11:52 47.54735 26.34388 31424 ft 464 kts 96°
2026-05-07 11:52 47.54360 26.39109 30938 ft 459 kts 96°
2026-05-07 11:53 47.53982 26.43792 30451 ft 456 kts 96°
2026-05-07 11:53 47.53603 26.48423 29937 ft 452 kts 96°
2026-05-07 11:53 47.53224 26.53020 29361 ft 448 kts 96°
2026-05-07 11:53 47.52846 26.57579 28796 ft 444 kts 97°
2026-05-07 11:54 47.52471 26.62102 28263 ft 441 kts 97°
2026-05-07 11:54 47.52097 26.66587 27732 ft 437 kts 97°
2026-05-07 11:54 47.51723 26.71048 27207 ft 434 kts 97°
2026-05-07 11:54 47.51349 26.75456 26690 ft 431 kts 97°
2026-05-07 11:55 47.50975 26.79827 26193 ft 427 kts 98°
2026-05-07 11:55 47.50186 26.84006 25958 ft 415 kts 116°
2026-05-07 11:55 47.48895 26.87756 25838 ft 404 kts 119°
2026-05-07 11:55 47.47607 26.91390 25678 ft 394 kts 119°
2026-05-07 11:56 47.46764 26.93751 25475 ft 391 kts 119°
2026-05-07 11:56 47.45497 26.97285 25132 ft 387 kts 119°
2026-05-07 11:56 47.44240 27.00781 24768 ft 384 kts 120°
2026-05-07 11:56 47.42986 27.04256 24405 ft 381 kts 120°
2026-05-07 11:57 47.41740 27.07705 24046 ft 379 kts 120°
2026-05-07 11:57 47.40511 27.11111 23547 ft 373 kts 120°
2026-05-07 11:57 47.39298 27.14471 22783 ft 368 kts 118°
2026-05-07 11:57 47.38479 27.18032 22035 ft 367 kts 98°
2026-05-07 11:58 47.38565 27.21768 21335 ft 365 kts 77°
2026-05-07 11:58 47.39401 27.25287 20588 ft 363 kts 68°
2026-05-07 11:58 47.40399 27.28701 19869 ft 361 kts 67°
2026-05-07 11:58 47.41420 27.32074 19186 ft 358 kts 66°
2026-05-07 11:59 47.42813 27.35080 18551 ft 355 kts 45°
2026-05-07 11:59 47.44833 27.37116 17862 ft 352 kts 21°
2026-05-07 11:59 47.47189 27.37905 17140 ft 346 kts 360°
2026-05-07 11:59 47.49549 27.37492 16443 ft 340 kts 341°
2026-05-07 12:00 47.51789 27.36392 15747 ft 337 kts 338°
2026-05-07 12:00 47.53985 27.35227 15100 ft 334 kts 337°
2026-05-07 12:00 47.56165 27.34062 14467 ft 331 kts 337°
2026-05-07 12:00 47.58322 27.32908 13838 ft 328 kts 337°
2026-05-07 12:01 47.60513 27.32136 13355 ft 322 kts 355°
2026-05-07 12:01 47.62725 27.32462 12804 ft 319 kts 16°
2026-05-07 12:01 47.64698 27.33893 12242 ft 316 kts 38°
2026-05-07 12:01 47.66196 27.36226 11682 ft 311 kts 59°
2026-05-07 12:02 47.67054 27.39114 11138 ft 304 kts 79°
2026-05-07 12:02 47.67225 27.42190 10595 ft 297 kts 98°
2026-05-07 12:02 47.66737 27.45118 10049 ft 290 kts 116°
2026-05-07 12:02 47.65667 27.47609 9484 ft 285 kts 134°
2026-05-07 12:03 47.64179 27.49438 8907 ft 280 kts 152°
2026-05-07 12:03 47.62395 27.50514 8351 ft 276 kts 168°
2026-05-07 12:03 47.60498 27.50749 7791 ft 273 kts 184°
2026-05-07 12:03 47.58602 27.50527 7215 ft 272 kts 185°
2026-05-07 12:04 47.56764 27.50315 7056 ft 257 kts 185°
2026-05-07 12:04 47.55038 27.50121 6930 ft 241 kts 184°
2026-05-07 12:04 47.53414 27.49945 6742 ft 228 kts 184°
2026-05-07 12:04 47.51843 27.49778 6569 ft 225 kts 184°
2026-05-07 12:05 47.50284 27.49607 6389 ft 224 kts 184°
2026-05-07 12:05 47.48737 27.49433 6121 ft 222 kts 184°
2026-05-07 12:05 47.47197 27.49259 5894 ft 221 kts 184°
2026-05-07 12:05 47.45669 27.49089 5699 ft 219 kts 184°
2026-05-07 12:06 47.44155 27.48919 5457 ft 217 kts 184°
2026-05-07 12:06 47.42648 27.48750 5223 ft 216 kts 184°
2026-05-07 12:06 47.41157 27.48584 4976 ft 215 kts 184°
2026-05-07 12:06 47.39666 27.48414 4817 ft 213 kts 184°
2026-05-07 12:07 47.38184 27.48245 4591 ft 213 kts 184°
2026-05-07 12:07 47.36723 27.48082 4429 ft 210 kts 184°
2026-05-07 12:07 47.35282 27.47924 4300 ft 204 kts 184°
2026-05-07 12:07 47.33872 27.48084 3931 ft 209 kts 161°
2026-05-07 12:08 47.32563 27.49100 3546 ft 217 kts 149°
2026-05-07 12:08 47.31266 27.50271 3235 ft 217 kts 149°
2026-05-07 12:08 47.30005 27.51404 2936 ft 207 kts 149°
2026-05-07 12:08 47.28796 27.52485 2678 ft 200 kts 149°
2026-05-07 12:09 47.27621 27.53535 2412 ft 195 kts 149°
2026-05-07 12:09 47.26491 27.54545 2165 ft 184 kts 150°
2026-05-07 12:09 47.25431 27.55491 1934 ft 175 kts 150°
2026-05-07 12:09 47.24436 27.56380 1725 ft 158 kts 151°
2026-05-07 12:10 47.23544 27.57175 1511 ft 144 kts 151°
2026-05-07 12:10 47.22710 27.57922 1307 ft 136 kts 151°
2026-05-07 12:10 47.21902 27.58637 1104 ft 136 kts 150°
2026-05-07 12:10 47.21093 27.59360 941 ft 135 kts 150°
2026-05-07 12:11 47.20298 27.60092 793 ft 135 kts 152°
2026-05-07 12:11 47.19475 27.60806 584 ft 135 kts 151°
2026-05-07 12:11 47.18673 27.61520 421 ft 134 kts 150°
2026-05-07 12:11 47.17966 27.62123 375 ft 106 kts 142°
2026-05-07 12:12 47.17543 27.62523 359 ft 30 kts 149°
2026-05-07 12:12 47.17411 27.62627 356 ft 18 kts 171°
2026-05-07 12:12 47.17329 27.62534 360 ft 13 kts 238°
2026-05-07 12:12 47.17286 27.62433 367 ft 12 kts 238°
2026-05-07 12:13 47.17268 27.62320 365 ft 12 kts 290°
2026-05-07 12:13 47.17341 27.62237 373 ft 18 kts 328°
2026-05-07 12:13 47.17471 27.62123 374 ft 21 kts 329°
2026-05-07 12:13 47.17528 27.62023 374 ft 11 kts 252°
2026-05-07 12:14 47.17530 27.61971 375 ft 0 kts 277°